TimeMDT,TemperatureF,Dew PointF,Humidity,Sea Level PressureIn,VisibilityMPH,Wind Direction,Wind SpeedMPH,Gust SpeedMPH,PrecipitationIn,Events,Conditions,WindDirDegrees,DateUTC
12:53 AM,39.9,33.1,77,30.11,10.0,Calm,Calm,-,N/A,,Partly Cloudy,0,2013-10-13 06:53:00
1:53 AM,37.9,34.0,86,30.12,10.0,Calm,Calm,-,N/A,,Mostly Cloudy,0,2013-10-13 07:53:00
2:53 AM,37.9,33.1,83,30.11,10.0,Calm,Calm,-,N/A,,Clear,0,2013-10-13 08:53:00
3:53 AM,36.0,33.1,89,30.10,10.0,East,3.5,-,N/A,,Clear,80,2013-10-13 09:53:00
4:53 AM,37.9,33.1,83,30.09,10.0,Calm,Calm,-,N/A,,Overcast,0,2013-10-13 10:53:00
5:53 AM,39.0,33.1,79,30.09,10.0,ESE,3.5,-,N/A,,Overcast,110,2013-10-13 11:53:00
6:53 AM,39.0,34.0,82,30.12,10.0,Calm,Calm,-,N/A,,Mostly Cloudy,0,2013-10-13 12:53:00
7:53 AM,37.9,34.0,86,30.17,10.0,Calm,Calm,-,N/A,,Partly Cloudy,0,2013-10-13 13:53:00
8:53 AM,45.0,37.0,74,30.14,10.0,NE,4.6,-,N/A,,Clear,50,2013-10-13 14:53:00
9:53 AM,51.1,37.9,61,30.14,10.0,ENE,9.2,-,N/A,,Clear,70,2013-10-13 15:53:00
10:53 AM,55.0,37.9,53,30.11,10.0,SE,8.1,-,N/A,,Clear,130,2013-10-13 16:53:00
11:53 AM,60.1,39.0,46,30.05,10.0,SE,9.2,-,N/A,,Clear,140,2013-10-13 17:53:00
12:53 PM,63.0,37.9,40,30.00,10.0,South,16.1,-,N/A,,Scattered Clouds,180,2013-10-13 18:53:00
1:53 PM,63.0,37.9,40,29.97,10.0,South,11.5,19.6,N/A,,Overcast,180,2013-10-13 19:53:00
2:53 PM,62.1,37.0,39,29.94,10.0,SSW,9.2,-,N/A,,Overcast,210,2013-10-13 20:53:00
3:17 PM,60.8,39.2,45,30.05,9.0,South,15.0,-,0.00,Rain-Thunderstorm,Light Thunderstorms and Rain,170,2013-10-13 21:17:00
3:32 PM,60.8,42.8,52,30.04,10.0,West,4.6,-,0.01,Rain,Light Rain,260,2013-10-13 21:32:00
3:40 PM,62.6,42.8,48,30.04,10.0,Calm,Calm,-,0.01,Thunderstorm,Mostly Cloudy,0,2013-10-13 21:40:00
3:53 PM,62.1,41.0,46,29.92,10.0,SE,3.5,-,0.01,,Scattered Clouds,130,2013-10-13 21:53:00
4:53 PM,61.0,41.0,48,29.89,10.0,ESE,6.9,-,N/A,,Mostly Cloudy,120,2013-10-13 22:53:00
5:53 PM,57.0,46.0,67,29.90,10.0,East,9.2,-,N/A,,Mostly Cloudy,90,2013-10-13 23:53:00
6:53 PM,54.0,44.1,69,29.91,10.0,Calm,Calm,-,N/A,,Partly Cloudy,0,2013-10-14 00:53:00
7:53 PM,53.1,42.1,66,29.94,10.0,North,4.6,-,N/A,,Scattered Clouds,360,2013-10-14 01:53:00
8:53 PM,48.0,42.1,80,29.94,10.0,East,4.6,-,N/A,,Partly Cloudy,80,2013-10-14 02:53:00
9:53 PM,46.0,37.9,73,29.94,10.0,Calm,Calm,-,N/A,,Clear,0,2013-10-14 03:53:00
10:53 PM,50.0,32.0,50,29.90,10.0,SSW,6.9,-,N/A,,Clear,200,2013-10-14 04:53:00
11:53 PM,48.0,30.9,52,29.90,10.0,WSW,9.2,-,N/A,,Clear,250,2013-10-14 05:53:00